Wind_Speed
51 52 53 54 54 52 49 47 44 43 41 39 36 31 25 19 14 12 13 14 17 21 25 28 30 31 28 25 24 25 28 32 37 40 40 40 42 43 44 45 44 43 42 42 43 43 43 43 42 41 42 44 44 43 43 43 45 46 46 47 49 50 49 49 51 53 55 56 56 51 46 45 45 44 43 44 43 42 41 39 38 39 41 42 41
50 51 52 53 52 50 47 44 42 41 39 37 34 27 20 14 11 12 15 18 19 21 23 24 26 28 26 24 24 25 27 29 35 40 41 41 40 41 43 46 47 46 44 42 41 42 43 43 43 43 45 46 46 45 44 43 44 46 47 49 51 50 49 52 56 58 58 58 54 49 46 46 46 46 46 45 43 42 40 39 40 41 42 43 43
50 50 51 52 50 48 45 42 39 39 38 35 31 23 17 12 13 15 17 20 21 23 24 24 25 26 25 23 24 26 27 28 31 36 40 42 42 43 44 46 48 48 46 44 44 45 46 46 45 46 48 48 48 48 47 46 46 48 51 53 54 53 54 56 58 59 60 57 52 48 47 48 47 48 48 46 44 42 41 40 41 43 45 45 44
49 49 50 50 48 46 43 39 37 37 36 34 28 21 15 14 17 18 20 22 22 24 25 26 27 26 23 22 21 23 25 28 32 36 41 44 43 42 44 44 45 46 45 45 47 48 48 47 46 49 50 49 50 50 49 48 49 51 54 56 56 56 55 57 58 60 61 57 51 50 51 49 49 49 49 48 45 43 42 42 43 45 47 47 46
48 49 49 48 46 44 41 37 35 36 35 33 27 20 16 17 20 22 24 26 24 24 26 27 28 28 27 24 23 26 29 31 34 37 43 47 44 41 42 43 42 43 45 46 47 48 48 47 47 49 50 51 52 52 51 51 51 52 54 55 56 55 55 58 61 62 61 57 53 53 52 50 50 51 51 49 46 44 45 44 45 48 49 49 49
47 48 48 47 45 42 39 35 34 34 34 32 27 20 18 20 23 24 26 27 26 26 27 27 28 31 33 28 24 28 32 32 34 37 43 47 46 42 41 42 43 43 44 46 47 48 48 49 50 50 51 52 52 52 53 53 53 53 53 55 56 56 56 59 62 62 60 58 56 55 54 53 54 55 55 52 49 48 48 47 48 50 51 51 51
46 46 46 45 43 41 37 34 33 33 33 31 27 20 20 23 26 26 27 28 28 28 29 29 29 33 36 31 27 30 33 34 35 40 43 45 45 44 42 43 45 45 45 46 47 49 50 51 52 52 52 53 53 54 55 54 53 53 54 56 57 57 57 60 61 59 58 58 57 57 57 58 60 60 59 56 53 51 50 50 52 53 53 53 53
45 46 45 44 42 39 36 33 32 32 32 31 27 21 21 25 28 29 29 30 30 29 30 30 32 35 36 33 31 32 35 36 37 41 44 45 46 46 44 44 45 46 48 49 50 51 52 53 54 53 52 53 55 58 59 57 55 55 56 58 58 58 59 59 58 57 58 59 59 58 58 60 61 61 59 56 53 52 52 53 54 54 55 55 55
45 45 45 43 41 39 36 33 32 32 31 30 28 23 22 26 30 32 32 32 32 30 30 31 34 38 38 36 35 36 38 39 39 39 42 45 45 46 46 44 44 46 48 51 53 54 54 55 55 53 52 54 58 60 61 60 59 59 59 58 56 55 56 57 57 58 60 60 60 59 59 59 59 57 56 54 53 54 56 57 57 56 56 56 57
45 45 44 43 41 38 36 34 32 31 31 30 29 25 22 26 32 34 34 34 32 31 32 33 36 41 42 39 37 37 39 41 41 40 41 43 45 46 46 46 46 47 48 51 53 54 54 55 54 54 53 55 58 61 60 59 59 59 57 53 51 52 55 57 58 60 60 60 60 60 59 57 56 54 54 54 55 56 58 60 59 59 58 57 58
45 46 45 43 41 39 37 35 33 32 31 30 30 27 24 26 32 37 37 35 33 32 34 36 39 44 45 42 39 39 40 42 43 41 41 42 44 46 48 49 49 49 49 50 50 50 52 53 54 54 52 52 56 59 60 59 58 57 55 53 53 55 58 60 59 59 59 59 60 60 58 56 55 54 54 56 57 59 61 61 62 61 60 59 60
46 46 45 44 42 41 39 37 35 33 32 30 30 29 26 26 32 39 41 39 36 34 35 38 41 46 47 45 41 41 41 43 45 46 46 45 45 46 48 51 53 52 52 53 52 52 54 54 55 56 54 54 56 56 56 56 55 56 57 57 57 58 58 60 60 59 58 58 60 61 58 57 57 56 57 58 60 62 64 64 64 64 62 62 63
47 47 46 45 44 43 41 40 37 35 34 32 30 31 29 27 31 39 44 45 41 37 37 39 43 47 49 47 45 44 43 44 46 49 52 52 52 50 50 52 54 54 55 56 56 56 56 57 58 58 58 59 58 56 55 56 58 60 60 60 59 59 59 60 60 59 58 58 60 62 60 58 59 60 60 61 62 64 66 66 67 67 67 67 66
48 47 47 46 46 45 44 43 40 38 37 34 31 31 31 30 30 36 44 48 47 43 40 41 43 47 50 49 48 48 47 46 46 48 52 55 57 56 54 53 54 54 55 55 55 56 57 58 60 60 59 59 58 57 58 60 61 63 63 62 61 60 60 61 61 60 59 59 60 62 61 61 61 62 62 63 64 65 66 68 70 70 71 71 70
49 49 48 48 47 47 46 45 43 41 40 38 34 31 31 32 32 34 40 47 51 50 46 44 45 48 50 50 50 50 50 49 48 49 51 53 56 58 56 55 54 54 55 55 54 56 58 60 61 62 61 61 60 60 60 60 61 63 63 62 61 60 60 61 61 60 60 61 61 62 62 62 63 63 64 65 66 67 69 71 72 73 73 74 74
51 50 50 50 49 49 48 48 46 45 43 42 39 35 32 32 34 35 38 44 51 54 53 50 48 49 51 52 51 51 52 51 50 51 52 53 55 58 58 57 56 57 57 57 56 57 59 61 62 63 63 63 62 62 62 62 64 65 64 62 62 61 61 62 62 61 62 62 63 63 63 64 65 66 67 69 70 72 73 74 74 74 74 75 76
52 52 52 52 52 51 51 50 50 48 47 45 43 40 35 32 33 36 39 42 47 54 57 56 54 53 53 54 54 53 53 53 53 53 52 53 54 56 59 60 61 61 61 61 61 61 62 63 64 64 63 64 64 64 65 66 68 69 68 66 65 64 64 65 65 65 65 65 65 66 67 68 70 72 73 74 75 75 75 76 76 76 76 77 77
54 54 54 54 54 54 53 53 53 52 51 49 47 45 41 36 33 35 39 43 46 52 57 60 60 58 57 57 57 56 55 55 56 56 56 55 54 54 57 59 61 62 63 64 65 66 67 67 67 67 67 67 67 67 69 70 70 71 71 70 69 69 69 69 69 70 70 70 71 72 73 75 76 77 77 76 76 77 78 78 78 78 79 79 79
56 56 56 56 56 56 56 56 56 55 54 53 51 49 46 43 37 35 38 43 47 51 56 61 63 64 63 61 61 61 59 57 57 58 59 59 58 57 57 58 60 61 62 64 65 67 68 69 69 69 69 70 70 71 72 73 73 74 75 74 73 73 73 72 73 74 76 77 77 78 79 79 79 79 78 78 79 80 80 80 81 81 81 81 80
58 58 58 59 59 59 59 59 58 58 57 56 54 53 51 48 44 39 37 41 47 52 56 60 64 66 67 66 65 64 64 62 60 59 60 61 61 61 60 61 62 63 63 65 66 68 69 69 70 70 71 73 73 74 75 77 78 78 79 78 78 78 78 77 78 80 81 82 82 82 82 82 81 81 80 81 81 82 83 83 84 83 83 82 81
60 60 61 61 61 61 61 61 61 60 60 58 57 56 55 53 50 46 41 40 45 52 57 61 64 68 70 70 69 67 67 67 65 64 63 63 63 63 62 63 64 65 66 67 69 70 71 72 73 74 75 77 77 77 78 79 81 81 81 81 82 83 83 83 84 83 83 84 84 83 83 82 82 82 82 83 84 85 86 86 86 85 84 83 83
62 62 63 63 63 64 64 64 63 63 62 61 60 59 58 57 55 52 48 44 44 50 57 61 64 68 71 73 73 71 70 70 69 68 67 67 67 66 65 65 65 66 67 69 70 71 72 74 75 77 78 80 80 81 81 82 83 83 83 84 84 85 85 85 85 84 84 84 84 84 84 83 83 85 86 87 88 88 88 88 88 87 86 85 85
63 64 65 65 66 66 66 66 66 65 65 64 63 62 61 60 59 56 53 50 46 48 54 61 65 68 72 75 76 76 74 74 73 72 70 70 71 71 71 69 68 68 68 69 70 71 72 74 75 76 78 79 80 81 82 83 83 84 85 86 86 87 87 87 87 86 86 86 86 86 87 87 88 89 89 89 88 88 88 88 88 88 88 87 87
65 66 67 67 68 68 68 68 68 68 67 67 66 65 64 63 62 59 56 52 48 47 51 58 64 68 72 75 78 80 79 78 77 76 75 74 73 73 74 75 74 73 72 72 72 73 73 74 75 75 76 77 78 79 80 81 82 83 84 85 86 87 87 88 88 87 87 88 89 89 90 90 90 90 89 88 88 87 88 88 89 90 90 89 89
67 68 69 69 70 70 71 71 71 70 70 69 68 68 67 66 64 61 57 52 49 47 49 54 60 66 71 75 78 81 83 82 81 80 80 79 77 76 77 77 78 78 78 77 77 77 77 77 77 77 77 78 78 79 80 81 82 83 84 84 85 86 86 87 87 88 89 90 91 91 91 90 90 89 89 89 89 89 89 90 90 91 91 91 91
69 70 70 71 72 72 73 73 73 72 72 71 71 70 70 68 64 60 55 51 49 48 48 51 56 62 68 73 77 81 84 85 86 85 84 83 82 82 81 81 81 81 81 81 81 82 82 82 82 82 82 82 82 83 83 84 84 84 85 86 86 87 88 89 89 90 91 92 92 91 90 89 89 90 90 90 91 91 91 92 92 93 93 93 93
70 71 72 73 74 74 74 74 74 74 74 74 74 73 71 67 63 58 54 51 50 49 49 50 52 56 62 68 74 80 84 86 88 89 89 88 87 85 85 85 86 85 84 84 84 84 85 86 86 87 87 88 88 88 89 89 89 90 90 91 91 92 92 92 93 93 93 92 92 91 91 90 91 91 92 92 93 94 94 95 95 95 95 95 95
72 73 74 75 75 76 76 76 76 76 76 76 75 73 69 65 61 58 55 53 51 50 50 51 52 54 57 61 67 74 81 86 89 91 91 92 92 91 90 89 89 90 90 89 89 88 88 88 89 89 90 90 90 91 91 92 92 93 93 93 94 94 93 93 93 93 92 92 92 92 92 92 92 93 94 95 96 97 97 98 98 98 97 97 97
74 75 76 76 77 77 77 77 77 77 76 75 72 69 67 64 61 59 57 55 54 53 53 53 54 55 57 59 62 66 73 81 88 93 94 95 95 95 95 94 94 94 94 94 94 94 93 93 92 92 92 92 92 92 93 93 93 92 92 93 93 93 93 93 93 94 94 94 94 95 95 96 96 97 98 99 100 100 101 101 101 101 101 101 101
76 77 77 77 78 78 78 79 78 76 73 70 68 66 65 64 63 61 60 59 58 57 56 56 57 57 59 60 62 64 67 72 79 87 94 98 99 99 98 98 98 98 98 98 98 98 99 99 98 98 97 97 97 97 97 97 97 96 96 96 96 97 97 98 98 99 99 99 100 100 100 101 101 101 102 102 103 103 103 104 104 104 104 103 103
77 78 78 79 79 79 79 77 75 72 70 68 66 65 65 64 64 63 63 62 61 60 60 59 59 60 61 61 63 65 67 69 72 77 85 93 99 102 103 103 102 102 101 101 101 101 101 102 102 102 102 102 102 102 102 102 102 102 102 102 102 102 103 103 103 103 103 103 103 103 103 103 103 103 104 104 104 104 104 105 105 105 104 104 103
78 78 79 79 79 77 75 73 71 69 68 67 66 66 65 65 64 64 63 62 61 60 59 59 59 59 60 61 62 64 66 68 71 73 77 82 90 98 104 107 108 107 106 105 104 104 104 104 104 105 105 105 105 105 105 106 106 106 106 106 106 105 105 105 105 105 105 105 105 105 104 104 104 104 104 104 104 105 105 105 105 105 105 105 105
79 79 78 77 75 73 71 69 68 67 67 66 66 65 64 63 62 61 59 58 57 56 56 56 56 56 57 59 60 62 63 65 68 71 74 77 81 87 95 102 108 111 111 110 109 108 107 106 106 107 107 107 107 107 106 106 106 107 107 107 107 107 107 107 107 108 108 107 107 106 106 106 106 105 105 105 105 106 106 106 107 107 107 108 108
78 76 74 72 70 69 68 67 66 66 65 64 63 62 60 59 57 56 55 54 53 52 52 52 53 53 54 55 57 59 60 62 64 67 70 74 77 80 85 91 98 104 110 113 114 114 113 112 111 110 109 109 109 110 110 110 110 110 109 109 108 108 108 108 108 109 109 109 109 109 108 108 107 106 106 106 106 107 107 108 108 109 110 110 111
73 71 69 68 67 66 66 65 64 62 61 60 58 57 56 55 54 53 53 53 52 52 52 51 52 52 53 54 55 56 57 59 61 63 65 68 72 76 79 83 88 93 99 105 110 114 116 117 117 117 115 114 113 112 112 112 113 113 114 114 113 113 112 112 112 112 112 112 112 112 112 111 111 111 111 111 112 112 113 113 114 114 115 116 117
68 67 66 65 65 64 62 61 59 57 56 55 54 54 54 53 53 53 53 53 53 53 53 53 53 53 53 53 54 55 56 57 59 60 62 64 67 70 73 77 81 86 90 95 100 105 109 113 116 119 120 120 120 119 118 117 116 116 116 116 117 117 117 117 117 118 118 118 119 119 119 119 119 119 119 119 120 120 120 121 121 121 121 122 122
65 64 63 62 60 59 57 56 55 54 54 53 53 53 52 52 52 51 51 51 51 51 51 51 52 52 53 53 54 54 55 56 57 58 60 62 64 65 68 70 74 78 82 87 91 95 100 104 108 111 115 117 119 121 122 122 122 122 121 121 120 120 120 120 120 121 121 121 122 122 122 123 123 124 124 125 125 126 126 126 125 125 125 125 125
62 60 58 56 55 54 53 53 53 52 52 51 50 50 49 49 48 48 48 48 48 48 49 49 50 51 51 52 53 54 55 56 56 57 58 59 61 63 65 66 68 71 74 78 82 86 90 94 98 102 106 109 112 114 117 118 120 121 122 123 123 123 123 123 123 123 123 123 123 123 123 123 124 124 125 126 127 127 128 128 128 128 128 128 128
56 55 53 53 53 52 52 51 50 49 48 47 46 46 46 46 46 46 46 47 47 47 48 48 49 50 50 51 52 53 54 55 56 57 57 58 59 60 62 63 65 67 69 71 74 78 81 84 88 91 95 98 102 105 108 110 112 114 116 117 119 120 121 121 121 121 121 122 122 121 121 121 122 122 123 123 124 125 125 125 125 125 125 125 125
52 52 51 51 50 49 48 47 46 45 44 44 44 44 44 44 44 45 45 45 46 46 46 47 47 48 49 49 50 51 52 53 54 56 57 58 58 59 60 61 62 63 65 66 69 71 74 77 79 82 84 87 90 94 96 99 102 104 106 108 110 112 113 115 116 117 117 118 118 118 118 118 119 119 119 120 120 120 120 120 120 120 120 120 120
50 50 49 47 46 45 44 43 42 42 42 42 42 42 42 43 43 43 43 43 43 44 44 44 45 45 45 46 47 48 49 49 50 52 53 55 56 57 58 59 60 61 62 63 64 66 68 70 73 75 77 79 82 84 87 89 92 94 96 98 100 102 103 105 106 107 109 110 111 112 112 113 114 114 114 115 115 115 115 115 115 115 115 115 115
47 45 43 42 41 40 40 40 40 40 40 41 41 41 41 41 41 42 42 42 42 43 43 44 45 45 45 46 46 47 48 48 48 49 49 50 51 52 52 54 56 58 60 61 62 63 63 65 67 69 71 72 75 77 79 81 84 86 88 90 92 94 95 97 98 99 101 101 102 103 104 104 105 106 106 107 108 108 109 109 109 110 110 110 110
41 39 38 38 37 38 38 38 39 39 39 39 40 40 40 41 42 42 43 43 44 44 45 45 46 46 47 47 48 48 49 50 50 50 50 50 50 49 48 48 48 50 53 55 58 60 61 62 63 64 65 66 68 71 73 75 77 79 81 83 85 87 89 91 92 94 95 96 97 98 99 100 101 101 102 102 103 104 104 105 105 106 106 106 107
36 35 35 35 36 36 37 37 37 38 38 39 39 40 41 41 42 43 43 44 44 45 45 45 46 46 47 47 48 49 50 51 51 52 52 52 52 51 50 48 46 45 46 48 50 53 56 58 60 61 62 63 63 64 66 68 70 73 75 76 78 80 82 84 86 87 89 90 92 93 94 95 96 97 98 99 100 100 101 102 103 103 104 104 104
33 33 33 34 34 35 36 36 37 37 38 39 39 40 41 41 42 42 43 43 44 44 45 45 45 45 46 46 47 47 48 49 50 52 53 53 53 53 53 52 50 47 45 45 45 47 49 51 53 56 58 60 61 61 61 62 64 66 68 70 72 74 76 77 79 81 83 84 86 87 88 90 91 92 93 94 95 96 96 97 98 98 99 100 100
31 32 32 33 33 34 35 35 36 37 38 39 39 40 40 41 41 42 43 43 43 43 44 44 44 44 44 45 45 45 46 47 48 49 50 52 52 53 53 54 53 51 49 47 45 45 46 47 48 50 52 54 56 58 59 60 60 61 63 64 67 69 71 72 74 76 77 78 80 81 82 84 85 86 88 89 90 90 91 92 93 93 94 95 95
30 30 31 31 32 33 34 35 36 37 38 38 39 39 40 40 41 41 42 43 43 43 43 43 43 43 43 43 44 44 44 45 46 47 48 49 50 51 51 52 53 53 52 50 48 46 45 45 45 46 47 49 51 53 55 56 57 58 59 60 61 63 65 67 69 71 73 74 75 76 78 79 80 81 83 84 85 86 87 87 88 89 89 90 90
29 29 30 30 31 32 34 35 36 36 37 37 38 39 39 40 40 41 41 42 42 43 43 43 43 43 43 43 43 43 43 44 44 44 45 46 47 48 49 50 50 51 52 52 50 48 47 45 45 44 44 45 47 48 50 52 53 54 56 57 58 59 60 62 63 65 67 69 71 72 73 75 76 77 78 79 80 81 82 83 84 84 85 85 86
29 29 29 30 31 32 34 35 36 36 37 37 38 38 39 39 40 41 41 42 42 43 43 43 43 43 43 43 43 43 43 43 43 44 44 44 45 45 46 47 48 49 50 51 51 50 48 46 44 44 43 43 44 44 46 48 49 50 52 53 54 55 57 58 59 61 62 64 65 66 68 69 71 72 73 75 76 77 78 78 79 80 80 81 81
29 29 29 30 31 32 34 35 36 36 37 37 38 38 39 39 40 41 42 42 43 43 43 44 44 44 44 44 44 43 43 43 43 43 44 44 44 44 44 45 46 47 47 48 49 50 50 48 45 43 42 42 43 43 43 44 45 47 48 49 50 51 52 54 55 56 58 59 60 61 63 64 65 66 68 69 70 71 72 73 74 75 76 76 77
29 29 30 31 32 33 34 35 36 36 37 37 38 39 39 39 40 40 41 42 43 44 44 45 45 45 45 45 45 45 44 44 44 44 44 44 44 44 44 44 44 45 45 45 46 47 48 48 47 44 42 41 41 42 42 42 43 44 45 46 47 48 49 50 51 52 54 55 56 57 58 59 60 61 62 63 64 65 66 67 68 69 70 71 71
Wind_Direction
293 297 300 303 305 304 304 304 305 307 311 317 318 310 294 278 261 241 224 205 192 191 194 197 202 209 216 226 232 229 224 227 230 229 231 232 228 229 235 239 242 243 243 245 246 247 249 251 252 252 251 253 258 262 264 266 268 270 269 268 268 269 270 274 280 284 286 288 288 287 288 293 299 301 304 305 305 305 305 302 300 300 303 308 311
294 297 300 303 304 303 303 304 306 309 313 319 318 305 286 263 231 211 201 192 190 194 195 196 200 208 216 222 224 223 222 227 230 230 230 231 228 228 231 234 235 235 237 241 244 245 248 250 250 250 252 255 259 261 263 265 267 268 266 263 261 263 268 275 281 283 285 286 284 282 288 294 298 300 302 303 303 302 301 298 298 299 301 304 307
295 298 301 304 304 302 303 304 307 311 314 320 317 299 276 242 205 191 192 196 199 197 192 191 200 210 215 214 214 219 222 225 229 228 227 228 227 226 228 230 231 233 235 238 242 245 248 249 249 250 253 255 258 260 261 263 263 263 263 263 263 266 270 276 280 281 282 283 279 281 289 294 297 299 300 301 300 298 297 295 295 297 299 301 303
295 298 301 303 302 301 302 305 309 312 314 319 314 293 263 225 200 188 186 191 197 197 195 198 204 208 206 200 204 216 223 226 229 231 229 228 227 226 226 228 230 233 236 240 243 245 246 247 248 249 252 254 256 258 261 262 262 261 263 266 268 270 274 277 278 278 280 279 278 283 291 294 297 299 298 299 297 294 294 293 292 295 297 298 300
295 298 301 303 301 301 302 305 311 312 313 316 311 287 251 219 204 194 188 189 192 193 196 203 204 200 196 193 200 212 220 225 228 230 231 231 231 229 227 227 229 231 235 239 240 241 243 246 247 249 251 253 254 256 258 260 260 261 263 266 268 271 275 276 275 276 278 278 279 286 290 293 296 297 297 297 293 291 292 292 291 294 296 296 298
295 299 301 302 300 300 303 306 311 312 311 313 309 283 245 218 206 200 195 195 195 191 193 200 201 196 195 196 204 214 220 224 226 228 229 230 232 231 227 226 228 230 232 234 235 237 240 243 247 250 251 253 253 255 256 257 258 260 262 265 268 272 275 276 275 276 276 276 280 285 288 290 293 294 294 294 291 289 290 290 292 294 295 295 297
295 298 300 300 299 300 303 306 311 312 310 311 308 283 247 222 208 202 200 201 202 197 196 199 197 195 199 203 210 217 221 223 226 230 232 231 232 234 230 226 227 229 231 233 235 238 241 243 246 249 251 253 254 255 256 257 258 260 263 266 270 273 275 275 275 274 273 275 280 284 286 288 290 291 292 292 290 288 288 290 293 294 295 295 296
294 298 299 299 299 300 303 306 310 312 309 308 306 286 251 229 213 204 202 204 205 203 203 203 198 197 204 210 215 219 219 220 224 231 235 235 235 237 235 233 233 233 234 237 239 242 244 245 246 248 250 252 252 251 252 255 257 259 262 266 271 273 273 272 272 272 273 276 279 282 284 287 288 289 290 289 288 286 288 291 293 293 294 295 295
294 296 297 298 298 299 302 305 308 311 308 305 304 289 258 235 219 209 205 206 207 207 208 209 205 204 209 217 221 221 219 218 221 227 233 235 236 237 237 236 238 239 240 241 242 243 244 245 245 245 246 247 247 247 249 252 255 257 260 265 269 269 269 271 272 273 275 277 278 280 283 285 286 287 287 286 286 286 288 291 292 293 294 294 295
292 295 296 297 297 299 302 304 306 309 308 304 302 293 267 241 225 214 210 210 212 212 211 213 213 211 214 221 225 224 220 219 221 224 228 231 234 236 236 235 237 239 239 240 241 241 242 242 242 242 243 246 248 249 250 252 255 258 261 264 265 265 268 272 274 275 275 276 278 280 282 283 283 284 284 284 285 287 288 290 291 292 293 294 295
291 294 295 296 297 299 301 303 304 306 307 304 300 295 276 249 231 220 216 216 218 218 216 217 217 216 218 222 225 226 223 221 222 224 226 228 231 234 236 235 235 236 237 239 239 239 239 238 238 239 242 247 250 252 254 255 258 260 262 263 264 267 270 273 274 274 275 276 277 278 280 282 282 283 284 285 286 287 288 290 291 291 292 292 293
290 293 294 295 296 298 299 301 303 305 305 303 299 295 283 260 238 226 222 222 222 223 223 223 221 219 219 222 225 226 225 224 225 226 227 229 231 233 235 237 237 237 239 241 241 240 239 239 240 240 242 245 248 252 255 256 258 260 261 263 266 268 271 272 273 273 273 275 276 278 280 282 282 284 285 286 287 288 289 291 291 291 291 292 292
288 291 293 294 295 297 298 300 303 304 303 302 299 295 287 270 248 234 228 226 226 226 227 228 227 223 221 222 225 227 227 227 227 227 228 231 234 236 236 237 238 238 239 241 242 242 242 243 244 243 243 246 249 251 254 256 258 261 262 264 266 268 269 269 269 270 272 274 276 279 282 283 284 285 286 286 287 288 289 290 290 291 291 291 292
287 290 292 294 295 297 298 299 302 302 301 300 299 295 289 278 260 243 234 230 228 229 230 231 232 229 225 225 227 230 231 231 230 229 229 230 234 237 237 236 237 238 239 239 241 242 242 243 245 245 244 246 249 252 254 258 260 262 263 265 267 268 268 267 268 270 272 274 276 280 283 284 284 285 285 286 286 286 287 288 289 290 291 292 293
287 289 292 294 295 297 298 298 300 300 299 299 298 296 291 283 270 254 242 235 231 231 232 233 234 233 230 228 229 231 234 234 233 233 232 230 231 233 235 235 236 237 239 239 240 242 243 244 245 246 246 247 249 252 255 258 260 262 264 266 268 268 268 268 269 270 272 273 276 278 280 281 282 282 283 283 284 285 285 286 287 289 290 291 293
286 289 291 293 295 296 297 298 298 298 298 298 297 295 291 285 276 264 251 241 235 233 233 234 235 235 234 232 231 233 235 237 237 236 236 235 234 234 235 236 236 237 238 239 240 242 244 245 246 247 248 249 250 252 254 257 260 262 264 266 267 268 267 268 269 270 271 272 274 275 276 277 279 280 281 281 282 283 284 285 286 288 289 290 292
286 288 290 292 294 295 296 297 297 297 297 297 296 294 291 287 279 269 259 249 241 237 235 236 236 236 235 234 233 235 237 240 240 238 237 238 239 239 239 239 240 240 240 240 241 242 244 245 247 247 249 250 251 252 254 257 260 262 263 264 265 265 266 267 268 269 269 270 271 273 274 276 278 279 280 280 281 282 283 284 286 287 288 289 290
285 287 289 291 293 295 296 296 297 297 296 296 295 293 291 288 282 273 264 255 247 242 239 237 237 237 237 236 234 235 238 241 243 242 240 240 241 242 243 243 244 245 246 245 245 245 246 247 248 249 251 252 253 254 256 257 260 262 262 262 263 264 265 266 267 268 268 269 270 272 274 276 277 278 279 280 281 283 284 285 285 286 287 288 289
284 286 288 290 292 294 295 295 296 296 296 295 294 293 292 290 285 278 268 260 253 246 242 240 238 237 238 238 237 236 237 241 244 244 244 243 244 244 245 246 247 248 249 250 249 249 250 250 251 252 253 254 254 254 255 257 258 260 261 262 263 264 265 266 267 267 268 269 271 273 275 276 278 279 280 281 282 283 283 284 284 285 286 287 289
283 285 287 289 291 292 293 294 295 295 295 294 294 294 293 292 289 283 273 264 257 251 245 242 240 238 237 238 238 238 237 239 243 245 245 245 245 246 247 247 248 249 250 252 252 253 253 253 253 253 254 254 254 255 256 257 258 259 261 263 264 265 266 267 268 269 270 272 273 274 276 277 278 279 280 281 281 281 282 282 283 284 286 287 288
283 285 287 288 290 291 292 293 293 294 294 294 294 293 293 292 291 287 280 270 261 254 248 244 241 240 238 237 238 239 239 239 241 243 245 246 246 246 247 247 247 248 249 250 252 253 254 255 255 255 256 257 258 258 259 260 261 262 263 265 266 267 268 269 270 271 272 273 274 275 276 276 277 278 278 279 279 280 281 282 283 284 285 287 288
283 285 286 288 289 290 291 292 292 293 293 293 293 293 292 292 291 290 286 278 267 257 251 246 243 241 239 238 238 239 240 240 241 242 244 246 247 247 247 248 248 248 248 249 250 252 253 254 255 256 257 258 260 260 261 262 263 264 265 265 266 266 267 268 269 270 271 272 273 274 275 275 275 276 277 278 279 280 282 283 284 285 286 288 289
283 284 286 287 288 290 291 292 292 292 292 292 292 292 292 291 291 290 288 282 273 260 252 248 245 242 240 239 238 238 240 241 242 242 244 246 247 247 247 248 248 249 249 249 249 250 251 252 253 254 256 257 258 259 260 261 262 264 265 265 266 266 267 269 270 271 271 272 273 273 274 274 275 276 277 279 280 281 282 283 284 285 287 288 289
283 284 285 287 288 289 290 291 291 291 292 292 292 291 292 291 291 291 288 283 275 264 255 250 247 244 242 240 239 238 239 240 242 243 243 245 247 248 248 248 248 249 250 250 251 251 251 252 253 254 255 256 256 257 259 260 261 263 264 266 267 269 270 270 271 272 272 272 273 273 274 275 277 278 279 280 281 282 282 283 284 285 285 286 286
283 284 286 287 288 289 289 290 291 291 291 291 291 292 292 292 291 290 287 282 275 267 258 252 249 246 244 242 240 239 239 240 241 242 243 244 245 247 249 249 249 249 250 250 251 252 252 253 253 254 255 255 256 257 258 259 260 262 263 265 267 268 269 270 271 272 272 273 274 275 277 278 279 280 280 281 281 281 282 282 282 283 283 284 285
283 284 285 286 287 288 289 290 290 291 291 292 292 292 292 292 291 288 285 280 275 269 262 256 252 249 247 245 243 241 240 240 241 242 243 244 245 246 247 249 249 250 250 251 251 252 253 253 254 255 255 256 256 257 257 258 260 261 262 264 265 266 267 269 270 271 272 274 275 276 277 278 279 279 280 280 280 280 280 281 281 281 282 283 284
282 284 285 286 287 288 289 290 290 291 292 292 292 292 292 291 289 286 283 278 274 269 265 259 255 252 250 248 246 244 242 241 241 241 242 243 245 246 247 248 249 250 250 251 252 252 253 254 254 255 256 257 258 258 259 260 261 262 263 264 265 266 267 268 269 270 271 272 274 275 276 276 277 277 278 278 279 279 280 280 281 282 282 283 284
283 284 285 286 287 288 289 290 291 291 292 292 292 291 290 289 287 285 281 278 274 269 265 261 257 254 252 250 249 247 245 243 242 242 242 243 244 245 246 247 249 250 250 251 251 252 253 253 254 255 256 257 258 259 260 261 262 263 264 265 266 267 267 268 269 269 270 270 271 272 273 274 274 275 276 276 277 278 278 279 280 281 282 282 283
284 285 286 287 288 289 290 290 291 291 291 291 291 290 289 288 287 285 282 279 275 271 267 264 260 257 254 252 251 250 248 246 245 243 243 243 244 245 245 246 247 249 250 251 251 252 252 253 254 254 255 256 257 258 259 260 261 262 263 264 265 266 266 267 267 267 268 269 269 270 271 272 273 273 274 274 275 276 277 278 278 279 280 281 281
285 286 288 289 289 290 290 291 291 291 290 290 289 288 287 287 286 284 283 281 278 275 272 268 264 261 257 255 253 252 251 249 247 246 245 244 244 244 245 246 247 248 249 250 251 252 252 253 253 254 255 255 256 257 258 259 260 260 261 262 263 264 265 266 266 267 268 269 269 270 271 271 272 272 273 274 275 275 276 276 277 278 279 279 280
287 288 289 289 290 291 291 291 291 290 290 289 288 287 287 286 285 284 283 282 280 278 275 272 269 266 262 259 256 253 252 251 249 248 247 246 245 244 245 245 246 247 248 248 249 250 251 252 253 254 255 255 256 257 257 258 259 260 261 262 263 264 265 265 266 267 267 268 269 270 270 271 271 272 272 273 274 274 275 275 276 277 277 278 279
287 288 289 289 290 290 290 290 290 289 289 289 288 288 287 286 286 285 284 283 281 280 277 275 272 269 266 264 260 257 255 253 251 250 249 248 247 246 246 246 246 246 247 247 248 249 250 251 252 253 254 255 256 256 257 258 259 260 261 262 262 263 264 265 265 266 266 267 267 268 268 269 269 270 271 271 272 273 273 274 275 276 276 277 277
287 288 289 289 289 289 289 289 289 289 289 289 288 288 288 287 286 286 285 283 282 280 279 276 274 271 268 266 264 262 259 256 254 252 250 249 249 248 247 247 247 247 247 247 248 248 249 250 250 251 252 253 254 255 256 256 257 258 260 261 261 262 263 263 264 264 265 266 266 266 267 267 268 269 269 270 270 271 272 272 273 274 275 275 276
288 289 289 289 289 289 289 289 289 289 289 289 289 288 288 288 288 287 286 285 283 281 280 278 276 274 272 269 267 265 264 261 258 256 254 252 251 250 249 249 249 248 248 248 248 249 249 250 250 251 251 252 253 254 254 255 256 257 258 258 259 260 260 261 261 262 263 264 264 265 265 266 266 267 268 268 269 270 271 272 272 273 274 275 276
288 289 289 289 290 290 290 290 290 289 289 289 289 289 289 289 289 288 288 287 286 284 283 281 279 277 276 273 271 269 268 266 264 261 259 256 254 252 251 251 250 250 250 250 250 250 250 250 251 252 252 253 253 253 254 255 255 256 257 258 258 259 259 259 260 261 262 263 264 265 265 266 266 267 267 268 269 270 271 272 273 274 275 276 277
288 289 289 290 290 290 290 290 290 290 290 290 290 290 290 290 290 289 289 288 288 287 286 285 283 281 279 277 275 274 272 270 268 267 265 262 260 258 256 254 253 252 252 252 252 251 251 252 252 252 253 254 254 255 255 256 256 257 257 258 258 259 260 260 260 261 262 262 263 264 265 266 267 268 269 269 270 271 272 273 273 275 276 277 278
289 289 289 289 290 290 290 290 290 290 291 291 291 291 291 291 290 290 289 289 288 288 287 286 285 284 283 281 280 278 276 274 272 271 269 268 266 264 262 260 258 257 255 255 254 253 253 253 253 254 254 254 255 255 256 257 257 258 258 259 260 260 261 261 262 262 263 263 264 264 265 266 267 268 268 269 270 270 271 272 272 273 274 275 276
289 289 289 289 289 290 290 290 291 291 291 291 292 291 291 291 291 291 290 290 289 289 288 287 287 286 285 284 283 282 281 279 277 275 274 272 271 269 267 265 263 262 260 259 258 257 256 255 255 255 255 255 256 256 257 257 257 258 259 259 260 261 262 262 263 263 264 264 265 265 266 267 268 268 269 269 270 271 271 272 272 273 274 274 275
288 288 289 289 290 290 291 291 292 292 292 292 293 293 293 293 293 293 293 293 292 292 291 291 290 289 288 287 286 285 284 283 282 281 279 277 275 273 272 270 268 267 265 263 262 261 260 259 258 257 257 257 257 257 257 258 258 258 259 259 260 260 261 262 262 263 264 264 265 266 266 267 268 268 269 270 271 272 272 273 274 274 275 275 276
288 289 289 290 290 291 291 292 292 292 293 294 295 295 296 296 296 296 296 296 295 294 294 292 292 291 290 289 288 287 286 285 284 284 283 282 280 279 277 275 274 272 270 268 266 265 264 263 262 261 260 260 259 259 259 259 259 259 259 260 260 260 260 261 261 262 263 264 264 265 266 267 267 268 269 270 271 272 273 274 274 275 276 276 277
288 289 289 290 290 291 291 292 293 295 296 297 297 298 298 298 298 298 298 297 297 297 297 296 296 295 294 294 292 291 290 288 287 286 285 283 282 281 281 280 279 277 276 273 271 269 268 267 266 265 264 263 262 261 261 261 261 261 261 261 261 261 261 262 262 262 263 263 264 264 265 266 267 267 268 269 270 271 272 273 273 274 275 276 277
288 288 289 289 290 291 292 294 295 297 298 299 299 300 300 301 301 301 302 302 302 303 303 303 303 302 302 301 300 299 297 296 294 293 291 288 286 284 282 281 280 280 279 278 277 275 273 271 269 268 267 266 265 264 263 263 262 262 262 262 262 262 263 263 263 263 264 264 264 265 265 266 266 267 268 268 269 270 271 271 272 273 274 275 276
287 287 288 289 290 292 294 295 297 298 299 300 302 303 304 305 306 306 306 307 307 307 306 306 306 306 306 305 305 304 303 302 301 300 298 297 295 292 289 285 283 281 280 279 279 278 278 277 275 273 271 269 268 267 266 265 265 264 263 263 263 263 263 263 264 264 264 265 265 265 266 266 267 267 267 268 269 269 270 271 272 272 273 274 275
285 286 287 289 291 293 295 297 299 300 302 303 304 305 306 307 307 307 307 307 307 307 307 306 306 306 306 306 305 305 305 304 304 304 303 302 302 300 298 296 292 288 285 282 280 279 278 278 277 277 276 274 272 270 269 267 267 266 266 265 265 264 264 264 264 264 264 265 265 265 266 266 266 267 268 268 269 269 270 270 271 272 273 273 274
285 287 289 291 294 296 298 299 301 302 303 304 305 306 306 306 306 306 306 306 306 306 306 306 306 305 305 305 305 305 305 305 305 305 305 305 305 305 304 303 301 298 295 291 288 285 282 280 278 278 277 277 276 275 273 271 269 268 267 267 266 266 266 265 265 265 265 265 265 265 266 266 266 267 267 268 268 269 270 270 271 272 272 273 274
286 289 291 294 296 297 299 300 302 303 303 304 304 304 304 304 305 305 305 305 305 305 305 305 305 306 306 306 306 306 306 306 306 306 306 306 306 306 306 306 305 304 302 300 297 294 290 287 284 282 280 279 278 277 276 275 273 272 270 269 268 267 267 267 267 267 266 266 266 266 266 266 267 267 267 268 268 269 270 270 271 271 272 273 274
288 290 292 294 295 297 298 299 300 301 301 302 302 303 303 303 304 304 305 305 306 306 307 307 307 307 307 307 307 307 307 307 307 307 307 307 307 307 307 307 307 306 306 304 303 300 297 294 291 288 285 283 281 279 278 277 276 275 273 272 271 269 268 268 267 267 267 267 267 267 267 267 267 268 268 268 269 269 270 270 271 271 272 273 274
288 289 291 292 294 295 296 297 298 299 300 301 301 302 303 304 305 305 306 307 307 308 309 309 310 310 310 310 309 309 309 308 308 308 308 308 308 309 309 309 309 308 308 307 306 304 302 300 297 294 291 288 285 283 281 279 278 277 275 274 273 272 271 270 269 268 268 268 268 268 268 268 268 268 269 269 269 270 270 271 271 272 273 273 274
287 288 288 289 291 292 294 296 297 299 300 301 302 303 304 306 307 307 308 309 310 311 311 312 312 312 312 312 311 311 311 311 311 311 311 311 311 311 311 311 311 310 310 309 308 307 305 303 301 299 296 293 290 286 284 282 280 279 277 276 275 274 273 272 271 270 270 269 269 268 268 268 268 269 269 269 270 270 271 271 272 272 273 274 274
284 285 285 287 289 291 294 296 298 299 301 302 304 305 306 307 308 310 311 312 312 313 314 314 314 315 315 315 315 314 314 314 314 314 314 313 313 313 313 313 313 312 311 310 309 308 307 306 304 303 300 298 295 292 289 286 283 281 280 278 277 275 274 273 273 272 272 271 271 270 270 269 269 269 269 269 270 270 270 271 272 272 273 273 274
281 282 283 286 288 291 294 297 298 300 302 304 305 306 307 308 309 310 312 313 314 315 316 316 317 317 317 317 317 317 316 316 316 316 316 316 316 316 316 316 315 314 313 312 311 310 309 308 307 306 304 302 299 297 294 291 288 285 283 281 280 278 277 276 275 274 273 273 272 272 272 271 271 271 271 271 271 271 271 271 272 272 273 273 274
Height
10663 10661 10659 10656 10653 10650 10647 10644 10640 10636 10633 10630 10627 10623 10620 10618 10617 10617 10617 10619 10620 10622 10624 10627 10630 10634 10637 10640 10642 10643 10647 10650 10651 10653 10656 10659 10664 10667 10669 10670 10672 10674 10675 10676 10675 10675 10675 10675 10677 10679 10679 10679 10679 10679 10680 10680 10681 10681 10681 10679 10677 10677 10676 10675 10675 10675 10676 10676 10673 10672 10671 10670 10668 10668 10667 10666 10664 10663 10661 10659 10657 10656 10655 10653 10651
10658 10657 10654 10652 10649 10645 10642 10639 10636 10632 10629 10627 10624 10621 10619 10618 10617 10616 10617 10619 10620 10622 10624 10626 10629 10632 10634 10636 10637 10638 10641 10644 10646 10648 10652 10655 10658 10662 10663 10664 10666 10667 10670 10671 10671 10671 10671 10671 10673 10674 10674 10674 10674 10675 10676 10676 10677 10678 10675 10672 10671 10673 10673 10671 10669 10670 10671 10671 10669 10668 10667 10665 10664 10663 10662 10661 10660 10659 10657 10655 10653 10651 10651 10649 10647
10653 10652 10650 10647 10645 10641 10638 10635 10632 10629 10626 10624 10622 10619 10618 10618 10617 10616 10617 10618 10619 10621 10623 10625 10628 10630 10631 10632 10633 10635 10637 10640 10642 10645 10648 10650 10653 10656 10658 10659 10660 10663 10665 10666 10666 10666 10666 10666 10668 10669 10669 10669 10669 10669 10670 10672 10673 10672 10669 10665 10665 10668 10668 10667 10666 10665 10665 10666 10664 10663 10662 10660 10658 10657 10656 10656 10655 10654 10652 10651 10648 10646 10646 10645 10643
10648 10647 10645 10643 10640 10637 10635 10632 10629 10626 10623 10621 10619 10617 10617 10617 10616 10616 10616 10617 10618 10620 10622 10624 10625 10628 10629 10629 10631 10634 10636 10637 10639 10641 10643 10645 10647 10650 10652 10654 10656 10658 10660 10660 10660 10661 10660 10662 10664 10665 10665 10665 10664 10663 10665 10666 10666 10665 10663 10660 10660 10662 10662 10662 10661 10659 10659 10659 10658 10657 10656 10654 10653 10651 10651 10650 10649 10648 10647 10646 10644 10641 10640 10640 10638
10644 10642 10640 10638 10636 10633 10631 10628 10625 10623 10620 10618 10617 10615 10615 10616 10615 10615 10615 10616 10617 10619 10621 10622 10623 10625 10626 10625 10627 10630 10632 10633 10634 10636 10637 10639 10642 10645 10648 10650 10652 10653 10655 10655 10655 10656 10656 10658 10659 10659 10659 10658 10658 10658 10659 10659 10659 10658 10658 10655 10654 10656 10657 10655 10654 10653 10653 10652 10651 10650 10649 10648 10646 10645 10645 10645 10644 10643 10641 10640 10639 10637 10635 10634 10633
10639 10638 10636 10634 10631 10629 10627 10625 10622 10620 10618 10616 10614 10613 10613 10614 10614 10613 10614 10614 10615 10616 10618 10619 10620 10621 10621 10619 10620 10623 10626 10628 10629 10631 10632 10634 10638 10641 10644 10646 10646 10647 10649 10650 10651 10651 10653 10654 10654 10653 10652 10650 10651 10653 10652 10652 10652 10652 10652 10650 10648 10650 10651 10649 10648 10647 10647 10645 10644 10643 10643 10642 10641 10640 10640 10640 10638 10637 10636 10635 10633 10632 10630 10629 10628
10634 10633 10631 10629 10627 10625 10623 10621 10619 10617 10615 10613 10612 10610 10610 10611 10611 10611 10611 10612 10612 10613 10614 10616 10617 10618 10617 10616 10615 10617 10620 10622 10624 10625 10627 10630 10633 10635 10638 10640 10640 10642 10644 10645 10646 10647 10648 10649 10648 10646 10645 10644 10646 10646 10644 10645 10646 10647 10646 10643 10642 10644 10644 10643 10642 10641 10640 10638 10636 10636 10636 10636 10636 10635 10634 10634 10632 10631 10630 10629 10628 10627 10625 10624 10622
10629 10628 10626 10625 10623 10621 10620 10618 10616 10614 10613 10611 10609 10608 10608 10608 10609 10609 10608 10609 10609 10610 10611 10612 10614 10615 10615 10614 10613 10613 10616 10618 10619 10621 10623 10626 10628 10630 10632 10634 10635 10637 10639 10640 10641 10642 10642 10642 10642 10642 10640 10640 10640 10638 10636 10639 10641 10641 10639 10638 10638 10638 10637 10636 10636 10635 10633 10631 10629 10629 10630 10630 10629 10629 10628 10627 10626 10624 10624 10623 10622 10621 10620 10619 10617
10624 10623 10622 10620 10619 10617 10616 10614 10613 10611 10610 10608 10606 10605 10605 10605 10606 10606 10605 10605 10606 10606 10607 10608 10609 10610 10610 10610 10610 10610 10612 10614 10615 10617 10619 10621 10623 10625 10627 10629 10630 10632 10633 10634 10635 10636 10636 10636 10637 10636 10635 10634 10632 10629 10630 10633 10634 10634 10633 10633 10634 10633 10631 10631 10631 10629 10626 10624 10623 10623 10625 10624 10622 10622 10622 10621 10620 10619 10617 10616 10615 10615 10614 10613 10612
10619 10618 10617 10616 10615 10613 10612 10611 10609 10608 10607 10605 10603 10602 10602 10602 10603 10603 10603 10603 10603 10602 10602 10602 10603 10604 10604 10605 10605 10606 10608 10609 10610 10612 10615 10617 10619 10621 10622 10624 10625 10626 10628 10628 10629 10630 10630 10630 10631 10631 10631 10627 10623 10621 10624 10626 10627 10627 10628 10628 10629 10628 10626 10625 10625 10622 10619 10617 10616 10616 10619 10618 10616 10616 10616 10615 10614 10613 10610 10608 10608 10608 10608 10608 10606
10614 10613 10612 10611 10610 10609 10608 10607 10606 10605 10603 10602 10600 10599 10598 10598 10599 10599 10599 10599 10599 10599 10599 10599 10598 10599 10599 10600 10601 10602 10603 10604 10606 10608 10610 10612 10614 10616 10617 10618 10619 10621 10623 10623 10624 10625 10625 10625 10625 10626 10625 10619 10614 10615 10618 10620 10620 10620 10621 10622 10622 10622 10621 10619 10618 10615 10613 10611 10608 10609 10612 10612 10611 10611 10610 10608 10607 10605 10602 10602 10601 10600 10602 10602 10600
10608 10608 10607 10606 10605 10604 10603 10603 10602 10601 10600 10599 10597 10595 10595 10594 10595 10595 10595 10595 10595 10595 10595 10595 10595 10594 10595 10596 10597 10598 10599 10600 10601 10603 10604 10606 10608 10610 10611 10611 10613 10616 10617 10617 10618 10618 10618 10618 10618 10618 10617 10611 10609 10612 10613 10613 10614 10613 10614 10615 10614 10616 10615 10613 10611 10608 10607 10605 10601 10601 10606 10607 10605 10605 10604 10601 10599 10596 10593 10593 10592 10592 10594 10595 10594
10603 10602 10602 10601 10600 10600 10599 10598 10598 10597 10596 10595 10594 10592 10591 10590 10590 10591 10590 10590 10591 10591 10591 10592 10591 10591 10591 10592 10593 10593 10594 10595 10596 10597 10599 10600 10601 10603 10604 10605 10606 10609 10609 10610 10610 10610 10610 10610 10608 10609 10609 10606 10606 10609 10608 10608 10607 10606 10606 10608 10608 10609 10608 10605 10603 10602 10602 10601 10595 10593 10598 10599 10598 10598 10597 10595 10594 10590 10587 10585 10583 10583 10583 10584 10586
10597 10597 10596 10596 10595 10595 10594 10593 10593 10593 10592 10591 10590 10589 10587 10586 10586 10586 10586 10586 10586 10587 10587 10587 10587 10586 10587 10588 10588 10587 10588 10589 10591 10592 10593 10594 10595 10596 10598 10599 10600 10601 10602 10603 10604 10603 10601 10600 10599 10600 10602 10602 10602 10604 10603 10602 10601 10598 10599 10600 10601 10602 10599 10596 10596 10597 10597 10595 10591 10589 10590 10591 10590 10590 10589 10588 10587 10586 10583 10579 10576 10575 10574 10573 10575
10592 10591 10591 10590 10590 10589 10589 10588 10588 10588 10587 10587 10586 10585 10584 10582 10581 10581 10581 10581 10581 10582 10582 10582 10581 10581 10582 10583 10583 10582 10582 10583 10585 10586 10587 10588 10589 10590 10591 10592 10593 10595 10595 10596 10597 10595 10592 10591 10591 10592 10594 10596 10598 10597 10597 10596 10593 10591 10591 10592 10592 10593 10590 10587 10589 10591 10590 10588 10586 10585 10584 10584 10583 10583 10583 10581 10579 10579 10577 10573 10570 10569 10567 10565 10565
10586 10585 10585 10584 10584 10584 10583 10582 10582 10582 10582 10581 10581 10580 10579 10578 10577 10576 10575 10576 10576 10576 10576 10576 10575 10575 10576 10577 10577 10577 10577 10577 10579 10580 10581 10583 10583 10584 10585 10585 10586 10586 10587 10588 10589 10587 10584 10583 10583 10584 10587 10589 10590 10589 10589 10588 10584 10582 10584 10584 10584 10584 10583 10581 10581 10581 10581 10580 10579 10579 10578 10577 10577 10576 10575 10574 10572 10571 10570 10567 10565 10564 10562 10559 10557
10580 10579 10579 10578 10578 10577 10577 10576 10576 10576 10575 10575 10575 10574 10574 10573 10572 10570 10570 10570 10570 10570 10570 10570 10569 10569 10569 10570 10570 10571 10571 10571 10572 10574 10575 10576 10577 10578 10579 10579 10579 10579 10579 10580 10580 10579 10577 10575 10575 10578 10579 10580 10580 10581 10581 10579 10575 10573 10575 10576 10576 10576 10575 10575 10574 10573 10572 10572 10571 10571 10571 10570 10570 10569 10568 10566 10564 10563 10562 10560 10558 10557 10556 10553 10551
10574 10573 10573 10572 10571 10571 10570 10570 10569 10569 10569 10568 10568 10567 10567 10567 10566 10565 10564 10563 10563 10563 10563 10563 10563 10562 10562 10562 10563 10563 10564 10564 10565 10567 10568 10569 10570 10571 10572 10572 10573 10572 10573 10574 10573 10572 10571 10570 10570 10571 10571 10571 10572 10572 10571 10570 10567 10564 10564 10567 10568 10568 10567 10568 10567 10565 10564 10565 10564 10563 10563 10563 10562 10561 10560 10559 10556 10554 10553 10551 10550 10549 10548 10546 10544
10567 10567 10566 10566 10565 10564 10564 10563 10562 10562 10562 10561 10560 10560 10559 10559 10559 10559 10558 10557 10556 10555 10555 10555 10555 10556 10555 10555 10555 10556 10556 10556 10557 10558 10560 10561 10562 10564 10564 10565 10565 10565 10565 10566 10566 10565 10565 10565 10565 10565 10563 10563 10563 10562 10561 10561 10559 10555 10555 10558 10559 10559 10559 10561 10560 10558 10556 10556 10556 10556 10556 10555 10554 10553 10552 10551 10548 10546 10544 10543 10541 10540 10539 10538 10537
10560 10560 10560 10559 10558 10558 10557 10556 10555 10555 10554 10553 10552 10552 10551 10551 10551 10551 10551 10550 10549 10547 10547 10546 10547 10547 10548 10548 10548 10548 10549 10549 10549 10550 10551 10552 10554 10555 10556 10557 10557 10558 10558 10557 10556 10556 10557 10558 10558 10557 10555 10552 10552 10553 10553 10551 10550 10548 10549 10551 10551 10551 10551 10552 10552 10550 10548 10548 10548 10548 10547 10547 10546 10545 10544 10542 10539 10537 10535 10534 10533 10532 10531 10531 10530
10553 10553 10552 10552 10551 10550 10550 10549 10548 10547 10546 10545 10544 10543 10543 10542 10542 10542 10542 10542 10540 10539 10538 10537 10537 10538 10539 10539 10539 10540 10541 10541 10541 10541 10542 10543 10545 10546 10548 10548 10548 10549 10549 10549 10548 10547 10548 10548 10548 10547 10545 10544 10544 10545 10545 10543 10541 10541 10542 10543 10543 10542 10542 10542 10543 10542 10541 10540 10539 10539 10539 10539 10538 10536 10535 10532 10530 10528 10527 10525 10524 10523 10523 10523 10522
10546 10545 10545 10544 10543 10542 10542 10541 10540 10539 10538 10537 10536 10535 10534 10533 10533 10532 10532 10532 10531 10529 10528 10528 10528 10528 10529 10530 10530 10531 10531 10532 10532 10533 10533 10534 10535 10536 10538 10539 10539 10540 10540 10540 10540 10539 10539 10539 10538 10537 10536 10536 10535 10535 10535 10534 10533 10532 10532 10532 10532 10532 10532 10532 10533 10534 10533 10532 10531 10530 10530 10530 10529 10526 10524 10522 10521 10520 10518 10515 10513 10512 10512 10514 10513
10539 10538 10537 10536 10535 10534 10533 10532 10531 10530 10529 10528 10527 10526 10526 10525 10524 10523 10522 10521 10520 10519 10518 10517 10517 10518 10518 10519 10520 10521 10522 10522 10523 10523 10524 10524 10525 10526 10527 10529 10530 10530 10531 10531 10531 10531 10530 10529 10529 10528 10528 10527 10526 10525 10525 10525 10524 10523 10521 10521 10521 10522 10522 10522 10523 10524 10524 10523 10522 10520 10520 10520 10518 10516 10513 10512 10512 10511 10508 10504 10502 10500 10501 10502 10503
10531 10530 10529 10528 10527 10526 10524 10523 10522 10521 10520 10519 10518 10517 10516 10515 10514 10513 10512 10511 10510 10509 10508 10507 10507 10507 10508 10509 10510 10510 10511 10512 10513 10513 10514 10515 10516 10516 10517 10518 10519 10520 10521 10521 10521 10522 10521 10520 10520 10519 10518 10518 10517 10516 10516 10515 10515 10514 10512 10511 10510 10511 10511 10511 10511 10512 10511 10510 10510 10509 10509 10508 10507 10504 10503 10502 10501 10499 10497 10494 10492 10490 10490 10490 10491
10524 10522 10521 10519 10518 10517 10515 10514 10513 10511 10510 10509 10508 10507 10506 10505 10504 10503 10502 10501 10500 10499 10499 10498 10497 10497 10497 10498 10499 10500 10501 10502 10502 10503 10504 10505 10506 10506 10506 10507 10508 10509 10510 10510 10511 10511 10511 10511 10510 10510 10509 10508 10507 10507 10506 10505 10505 10504 10503 10502 10501 10500 10500 10500 10499 10499 10498 10497 10497 10496 10496 10496 10494 10492 10491 10490 10489 10487 10485 10484 10482 10480 10479 10479 10478
10516 10514 10513 10511 10509 10508 10506 10504 10503 10501 10500 10499 10498 10496 10495 10494 10493 10493 10492 10491 10491 10490 10489 10489 10488 10488 10487 10487 10488 10489 10490 10491 10492 10492 10493 10494 10495 10496 10496 10496 10497 10498 10499 10499 10500 10500 10500 10500 10500 10500 10499 10498 10497 10496 10496 10495 10495 10494 10494 10493 10492 10492 10491 10490 10489 10488 10487 10485 10485 10484 10484 10483 10482 10480 10479 10478 10476 10474 10473 10472 10470 10469 10468 10467 10466
10508 10506 10505 10503 10501 10499 10497 10495 10494 10492 10490 10489 10487 10486 10484 10483 10483 10482 10482 10482 10481 10481 10480 10480 10479 10478 10478 10478 10478 10478 10479 10480 10481 10481 10482 10483 10484 10484 10485 10485 10486 10487 10488 10488 10488 10489 10489 10489 10489 10489 10488 10488 10487 10486 10485 10484 10484 10484 10483 10483 10482 10482 10481 10481 10480 10479 10478 10476 10475 10474 10473 10473 10471 10469 10468 10467 10464 10462 10460 10459 10458 10456 10457 10456 10453
10499 10498 10496 10494 10492 10490 10488 10486 10484 10482 10480 10478 10476 10475 10473 10472 10472 10471 10471 10471 10471 10471 10470 10470 10469 10469 10468 10468 10467 10467 10468 10469 10469 10470 10470 10471 10472 10473 10473 10474 10475 10475 10476 10476 10476 10477 10477 10478 10478 10477 10477 10477 10476 10475 10474 10473 10473 10472 10472 10471 10471 10470 10470 10469 10469 10468 10467 10466 10465 10464 10463 10463 10462 10460 10459 10457 10454 10451 10450 10449 10446 10445 10446 10446 10443
10490 10489 10487 10485 10483 10481 10479 10476 10474 10472 10470 10467 10465 10464 10462 10461 10461 10460 10460 10460 10460 10460 10459 10459 10459 10458 10458 10457 10457 10457 10456 10456 10457 10457 10458 10459 10459 10460 10461 10462 10462 10462 10463 10463 10463 10464 10465 10465 10465 10465 10465 10465 10465 10464 10463 10462 10462 10461 10461 10460 10459 10458 10458 10457 10457 10456 10456 10455 10455 10454 10453 10453 10452 10450 10448 10446 10443 10442 10441 10439 10436 10435 10435 10435 10434
10481 10479 10477 10475 10473 10470 10468 10466 10463 10461 10459 10457 10455 10453 10452 10451 10450 10449 10448 10448 10447 10447 10447 10447 10447 10447 10446 10446 10445 10445 10445 10444 10444 10444 10445 10446 10447 10447 10448 10449 10449 10449 10450 10450 10450 10451 10451 10452 10452 10452 10452 10452 10452 10452 10451 10450 10450 10450 10450 10449 10448 10447 10446 10445 10445 10445 10444 10443 10443 10442 10442 10441 10440 10439 10436 10435 10433 10432 10430 10428 10426 10425 10424 10423 10423
10472 10470 10467 10465 10462 10460 10457 10455 10452 10450 10448 10447 10445 10443 10442 10440 10439 10438 10437 10436 10435 10435 10434 10434 10433 10433 10433 10433 10433 10432 10432 10431 10431 10431 10431 10432 10433 10434 10434 10435 10435 10436 10436 10437 10437 10437 10438 10438 10439 10439 10439 10439 10439 10439 10439 10438 10438 10437 10437 10437 10437 10435 10434 10434 10433 10432 10432 10431 10431 10430 10430 10429 10428 10426 10425 10424 10423 10420 10418 10416 10414 10413 10413 10411 10410
10462 10460 10458 10455 10453 10450 10447 10445 10442 10440 10438 10436 10434 10433 10432 10430 10428 10427 10425 10424 10423 10422 10421 10420 10420 10420 10419 10419 10419 10419 10419 10419 10418 10418 10418 10418 10418 10419 10420 10420 10420 10421 10422 10423 10423 10424 10424 10425 10425 10425 10425 10426 10425 10426 10426 10425 10425 10424 10424 10424 10424 10423 10422 10422 10421 10419 10418 10418 10418 10418 10417 10416 10415 10414 10414 10413 10411 10409 10407 10405 10404 10402 10401 10399 10398
10453 10450 10448 10445 10443 10440 10438 10435 10433 10430 10428 10426 10424 10422 10421 10419 10418 10416 10415 10413 10412 10410 10409 10408 10407 10407 10406 10406 10405 10405 10405 10405 10405 10405 10405 10405 10405 10405 10405 10405 10405 10406 10407 10408 10408 10409 10410 10410 10410 10410 10411 10411 10411 10411 10411 10411 10411 10411 10410 10411 10411 10410 10410 10409 10408 10406 10405 10405 10405 10405 10405 10404 10403 10402 10402 10401 10399 10396 10395 10394 10393 10391 10389 10386 10385
10443 10440 10438 10435 10433 10430 10428 10426 10423 10421 10419 10417 10415 10413 10411 10409 10407 10406 10404 10403 10402 10401 10399 10398 10397 10396 10395 10394 10394 10393 10393 10392 10392 10392 10391 10391 10391 10391 10391 10391 10391 10391 10391 10392 10393 10394 10394 10395 10395 10395 10396 10396 10396 10396 10397 10397 10397 10396 10396 10397 10397 10396 10396 10396 10395 10393 10392 10392 10392 10391 10391 10391 10391 10390 10389 10388 10386 10384 10383 10382 10381 10379 10375 10373 10373
10433 10431 10428 10426 10423 10421 10419 10416 10414 10412 10410 10408 10406 10404 10402 10400 10399 10397 10395 10393 10391 10390 10389 10388 10387 10386 10385 10384 10383 10382 10381 10381 10380 10379 10379 10379 10378 10378 10378 10378 10378 10377 10376 10377 10378 10379 10379 10380 10380 10380 10380 10381 10381 10381 10381 10382 10382 10382 10382 10382 10382 10382 10382 10382 10382 10381 10380 10379 10378 10377 10377 10378 10378 10377 10375 10375 10374 10372 10370 10368 10367 10365 10363 10360 10359
10424 10422 10419 10417 10414 10412 10410 10407 10405 10403 10401 10400 10398 10396 10394 10392 10390 10388 10387 10385 10383 10381 10379 10378 10377 10376 10375 10374 10372 10371 10371 10370 10369 10368 10367 10367 10366 10366 10366 10365 10365 10364 10362 10362 10363 10364 10364 10364 10365 10365 10365 10366 10366 10366 10366 10367 10367 10367 10367 10366 10366 10366 10367 10367 10367 10367 10367 10365 10364 10363 10363 10363 10363 10362 10361 10361 10360 10358 10356 10354 10353 10352 10351 10348 10346
10415 10413 10411 10408 10406 10404 10402 10399 10397 10396 10394 10392 10390 10388 10386 10384 10383 10381 10379 10377 10375 10373 10372 10370 10368 10366 10365 10363 10362 10361 10360 10359 10358 10357 10356 10355 10354 10354 10354 10354 10353 10352 10350 10349 10349 10349 10350 10350 10350 10350 10350 10350 10350 10351 10351 10351 10352 10352 10352 10351 10351 10351 10351 10351 10351 10351 10351 10350 10349 10349 10349 10349 10348 10347 10347 10345 10343 10342 10342 10340 10339 10339 10337 10335 10333
10407 10405 10403 10401 10398 10396 10394 10392 10390 10388 10386 10384 10383 10381 10379 10377 10375 10373 10371 10369 10367 10366 10364 10362 10360 10358 10356 10354 10353 10351 10349 10347 10346 10346 10345 10344 10343 10342 10341 10340 10340 10340 10339 10337 10336 10336 10336 10336 10336 10335 10335 10335 10335 10335 10335 10335 10336 10336 10336 10336 10336 10336 10335 10335 10335 10335 10335 10334 10334 10334 10334 10334 10333 10332 10331 10329 10327 10326 10326 10325 10324 10324 10322 10320 10319
10400 10398 10396 10393 10391 10389 10387 10385 10383 10381 10379 10377 10376 10374 10372 10370 10368 10366 10364 10362 10360 10358 10356 10354 10352 10350 10348 10346 10344 10342 10340 10338 10336 10334 10333 10333 10332 10330 10329 10328 10327 10326 10326 10325 10324 10323 10322 10321 10321 10321 10321 10321 10320 10320 10320 10319 10319 10320 10320 10321 10321 10320 10319 10319 10319 10319 10319 10318 10318 10319 10320 10318 10317 10316 10315 10313 10312 10311 10310 10310 10309 10307 10306 10304 10303
10393 10391 10389 10387 10384 10382 10380 10378 10376 10375 10373 10371 10369 10368 10365 10363 10361 10359 10357 10355 10353 10351 10349 10347 10345 10342 10340 10338 10336 10334 10332 10329 10327 10325 10323 10321 10320 10318 10317 10316 10314 10313 10312 10312 10311 10310 10309 10307 10306 10307 10307 10307 10306 10306 10306 10305 10304 10304 10304 10305 10305 10305 10304 10304 10304 10304 10304 10304 10304 10305 10304 10303 10302 10301 10301 10299 10298 10297 10296 10295 10294 10292 10290 10289 10287
10387 10385 10382 10380 10378 10376 10374 10372 10371 10369 10367 10365 10364 10362 10360 10358 10356 10354 10351 10349 10347 10345 10342 10340 10338 10336 10334 10331 10328 10326 10324 10321 10319 10317 10314 10311 10310 10308 10306 10304 10302 10301 10299 10298 10297 10297 10296 10294 10292 10292 10293 10292 10291 10291 10291 10290 10290 10290 10290 10289 10289 10289 10289 10289 10289 10289 10289 10289 10289 10289 10289 10289 10288 10287 10287 10286 10285 10284 10283 10281 10280 10278 10277 10275 10274
10380 10378 10377 10375 10373 10371 10369 10367 10366 10364 10362 10360 10358 10356 10355 10352 10350 10348 10346 10343 10341 10339 10336 10333 10331 10328 10326 10324 10321 10318 10315 10313 10311 10308 10306 10303 10300 10299 10297 10295 10293 10290 10288 10286 10284 10283 10282 10281 10279 10278 10278 10278 10277 10276 10276 10276 10275 10275 10275 10274 10274 10274 10274 10274 10274 10274 10273 10273 10273 10274 10274 10274 10273 10273 10273 10272 10271 10270 10269 10268 10266 10265 10264 10262 10261
10375 10373 10372 10370 10368 10366 10365 10363 10361 10359 10357 10355 10353 10351 10349 10347 10344 10342 10339 10337 10335 10332 10330 10328 10325 10322 10320 10317 10314 10311 10308 10305 10302 10300 10297 10294 10291 10289 10287 10286 10284 10281 10278 10276 10273 10271 10270 10268 10267 10265 10264 10264 10263 10262 10262 10261 10261 10260 10260 10260 10260 10260 10260 10259 10259 10258 10258 10258 10259 10259 10259 10259 10258 10258 10258 10257 10257 10256 10255 10254 10253 10252 10250 10249 10248
10370 10368 10367 10365 10364 10362 10360 10358 10357 10355 10353 10351 10349 10346 10344 10342 10340 10337 10335 10332 10330 10327 10325 10322 10320 10317 10314 10311 10308 10305 10302 10298 10294 10291 10288 10285 10282 10280 10277 10275 10274 10272 10269 10266 10264 10261 10259 10257 10255 10253 10251 10250 10250 10249 10248 10248 10247 10246 10246 10246 10246 10246 10245 10245 10245 10244 10244 10244 10244 10244 10244 10244 10244 10244 10244 10243 10243 10242 10241 10240 10240 10239 10238 10237 10236
10365 10364 10362 10361 10359 10357 10355 10353 10352 10350 10348 10346 10344 10342 10340 10338 10335 10333 10330 10328 10325 10323 10320 10318 10315 10312 10309 10306 10303 10300 10296 10292 10288 10285 10281 10277 10274 10271 10268 10265 10263 10261 10260 10257 10254 10252 10249 10247 10244 10242 10240 10238 10237 10236 10235 10235 10234 10233 10233 10232 10232 10232 10231 10231 10231 10230 10230 10230 10230 10230 10230 10230 10230 10230 10230 10230 10229 10228 10228 10227 10227 10226 10225 10224 10223
10360 10359 10357 10356 10354 10353 10351 10349 10347 10345 10343 10342 10340 10338 10336 10333 10331 10329 10326 10323 10321 10319 10316 10313 10311 10308 10305 10301 10298 10295 10292 10287 10283 10279 10275 10271 10268 10264 10261 10257 10253 10251 10249 10247 10245 10242 10239 10237 10235 10232 10230 10228 10226 10225 10224 10223 10222 10221 10221 10220 10219 10219 10218 10218 10218 10217 10217 10217 10217 10217 10217 10217 10217 10216 10216 10216 10216 10215 10215 10215 10214 10213 10212 10211 10210
10356 10355 10353 10352 10350 10349 10347 10345 10343 10342 10340 10338 10336 10334 10332 10330 10327 10325 10322 10319 10316 10314 10311 10308 10305 10302 10300 10296 10293 10290 10287 10283 10279 10275 10270 10266 10262 10258 10255 10251 10247 10243 10239 10237 10235 10233 10230 10228 10226 10223 10221 10219 10216 10215 10213 10212 10210 10210 10209 10208 10208 10207 10206 10206 10205 10205 10204 10203 10203 10204 10204 10204 10204 10204 10203 10203 10203 10202 10202 10201 10201 10200 10199 10198 10197
10352 10351 10349 10348 10347 10345 10343 10342 10340 10338 10336 10334 10332 10330 10328 10325 10323 10320 10317 10314 10311 10308 10306 10303 10300 10297 10294 10291 10288 10285 10281 10278 10274 10270 10266 10261 10257 10253 10249 10245 10241 10237 10232 10229 10226 10224 10222 10219 10217 10214 10212 10210 10208 10205 10203 10202 10200 10199 10198 10197 10196 10196 10195 10194 10194 10193 10192 10192 10191 10192 10192 10191 10191 10191 10191 10191 10190 10190 10189 10189 10188 10188 10187 10186 10185
10348 10347 10346 10344 10343 10342 10340 10338 10336 10334 10333 10330 10328 10326 10323 10321 10318 10315 10312 10309 10306 10303 10300 10297 10294 10291 10288 10285 10282 10279 10276 10272 10269 10265 10261 10256 10252 10248 10244 10239 10235 10231 10227 10222 10219 10216 10213 10211 10209 10206 10203 10201 10199 10197 10195 10193 10191 10190 10189 10187 10186 10185 10184 10184 10183 10182 10181 10181 10181 10180 10180 10180 10179 10179 10179 10179 10178 10178 10178 10177 10176 10176 10175 10174 10173
10344 10343 10342 10341 10340 10338 10336 10335 10333 10331 10328 10326 10324 10321 10319 10316 10313 10310 10307 10304 10301 10298 10295 10292 10289 10285 10282 10279 10276 10273 10270 10267 10263 10259 10255 10251 10247 10243 10239 10235 10230 10226 10222 10217 10213 10208 10205 10203 10201 10199 10196 10193 10191 10189 10187 10185 10183 10181 10179 10178 10177 10176 10175 10174 10173 10172 10171 10170 10170 10169 10169 10169 10168 10168 10168 10167 10167 10167 10166 10166 10165 10165 10164 10163 10162
10341 10340 10338 10337 10336 10334 10333 10331 10329 10327 10324 10322 10319 10316 10314 10311 10309 10306 10303 10299 10296 10293 10289 10286 10283 10279 10276 10273 10269 10266 10263 10260 10257 10254 10249 10245 10241 10237 10233 10229 10225 10220 10216 10213 10208 10204 10199 10195 10192 10191 10189 10186 10183 10181 10179 10177 10175 10173 10171 10170 10168 10167 10166 10165 10164 10163 10162 10161 10160 10159 10159 10158 10158 10157 10157 10157 10156 10156 10156 10155 10154 10154 10153 10152 10151